JL1CBB-13 Weather Reports


Display with metric or nautical units.
time (UTC)temp
F
wind
direction
speed
MPH
gust
MPH
rain 1hr
in
rain 24hr
in
rain mn
in
humidity
%
barometer
mb
20260509185155 61 270 0.0 0.0 0.00 0.00 0.00 39 1021.0
20260509184155 61 97 1.0 2.0 0.00 0.00 0.00 39 1021.0
20260509183155 61 45 1.0 3.0 0.00 0.00 0.00 39 1021.0
20260509182155 61 97 0.0 0.0 0.00 0.00 0.00 40 1021.0
20260509181155 61 92 1.0 2.0 0.00 0.00 0.00 40 1021.0
20260509180154 61 116 2.0 3.0 0.00 0.00 0.00 40 1021.0
20260509175154 61 57 1.0 3.0 0.00 0.00 0.00 40 1021.0
20260509174156 61 274 0.0 2.0 0.00 0.00 0.00 40 1021.0
20260509173156 61 355 2.0 5.0 0.00 0.00 0.00 40 1021.0
20260509172155 61 54 1.0 2.0 0.00 0.00 0.00 41 1020.0
20260509171155 61 66 2.0 2.0 0.00 0.00 0.00 41 1020.0
20260509170155 61 202 2.0 2.0 0.00 0.00 0.00 41 1020.0
20260509165155 61 96 1.0 3.0 0.00 0.00 0.00 41 1020.0
20260509164155 62 43 1.0 2.0 0.00 0.00 0.00 41 1020.0
20260509163155 62 21 1.0 2.0 0.00 0.00 0.00 41 1020.0
20260509162155 62 45 1.0 2.0 0.00 0.00 0.00 41 1020.0
20260509161155 62 69 0.0 1.0 0.00 0.00 0.00 41 1019.0
20260509160156 62 100 1.0 2.0 0.00 0.00 0.00 41 1019.0
20260509155155 62 36 2.0 3.0 0.00 0.00 0.00 41 1019.0
20260509154156 62 30 2.0 3.0 0.00 0.00 0.00 40 1019.0
20260509153156 62 36 1.0 1.0 0.00 0.00 0.00 40 1019.0
20260509152155 62 48 0.0 0.0 0.00 0.00 0.00 40 1020.0
20260509151155 62 90 0.0 0.0 0.00 0.00 0.00 39 1019.0
20260509150155 63 32 0.0 1.0 0.00 0.00 0.00 39 1019.0
20260509145155 63 52 1.0 3.0 0.00 0.00 0.00 38 1019.0
20260509144155 64 52 2.0 3.0 0.00 0.00 0.00 37 1019.0
20260509143155 64 14 2.0 2.0 0.00 0.00 0.00 37 1019.0
20260509142155 64 52 0.0 0.0 0.00 0.00 0.00 37 1018.0
20260509141155 64 68 0.0 0.0 0.00 0.00 0.00 36 1019.0
20260509140155 64 20 2.0 2.0 0.00 0.00 0.00 36 1019.0
20260509135154 64 50 1.0 2.0 0.00 0.00 0.00 39 1019.0
20260509134154 65 84 1.0 0.0 0.00 0.00 0.00 39 1019.0
20260509133154 64 25 0.0 0.0 0.00 0.00 0.00 43 1019.0
20260509132154 64 51 2.0 3.0 0.00 0.00 0.00 45 1019.0
20260509131154 63 68 0.0 0.0 0.00 0.00 0.00 52 1018.0
20260509130154 63 68 1.0 2.0 0.00 0.00 0.00 52 1018.0
20260509125153 63 158 0.0 0.0 0.00 0.00 0.00 52 1018.0
20260509124155 63 180 0.0 0.0 0.00 0.00 0.00 51 1018.0
20260509123155 64 180 0.0 0.0 0.00 0.00 0.00 51 1018.0
20260509122155 64 180 0.0 0.0 0.00 0.00 0.00 51 1018.0
20260509121155 65 184 0.0 0.0 0.00 0.00 0.00 52 1018.0
20260509120155 65 180 0.0 0.0 0.00 0.00 0.00 52 1018.0
20260509115154 65 247 0.0 0.0 0.00 0.00 0.00 53 1018.0
20260509114154 66 237 1.0 2.0 0.00 0.00 0.00 54 1018.0
20260509113154 66 200 1.0 2.0 0.00 0.00 0.00 54 1018.0
20260509112154 66 210 0.0 1.0 0.00 0.00 0.00 54 1017.0
20260509111154 66 208 0.0 0.0 0.00 0.00 0.00 52 1017.0
20260509110154 67 150 0.0 1.0 0.00 0.00 0.00 51 1017.0
20260509105153 67 193 2.0 5.0 0.00 0.00 0.00 50 1017.0
20260509104154 67 220 2.0 2.0 0.00 0.00 0.00 31 1017.0
20260509103154 68 68 0.0 0.0 0.00 0.00 0.00 29 1017.0
20260509102154 68 68 0.0 0.0 0.00 0.00 0.00 25 1017.0
20260509101154 69 68 0.0 0.0 0.00 0.00 0.00 25 1017.0
20260509100154 69 25 1.0 3.0 0.00 0.00 0.00 25 1017.0
20260509095154 70 68 0.0 2.0 0.00 0.00 0.00 26 1016.0
20260509094154 70 55 1.0 2.0 0.00 0.00 0.00 25 1017.0
20260509093154 70 42 1.0 2.0 0.00 0.00 0.00 26 1017.0
20260509092153 71 313 1.0 1.0 0.00 0.00 0.00 26 1016.0
20260509091153 71 47 0.0 0.0 0.00 0.00 0.00 26 1015.0
20260509090153 72 43 1.0 2.0 0.00 0.00 0.00 26 1015.0
20260509085153 72 20 1.0 2.0 0.00 0.00 0.00 26 1014.0
20260509084153 73 219 0.0 2.0 0.00 0.00 0.00 26 1015.0
20260509083152 73 104 2.0 2.0 0.00 0.00 0.00 26 1015.0
20260509082154 73 32 1.0 3.0 0.00 0.00 0.00 26 1015.0
20260509081154 74 321 2.0 5.0 0.00 0.00 0.00 26 1015.0
20260509080154 74 38 2.0 3.0 0.00 0.00 0.00 26 1015.0
20260509075154 74 36 2.0 3.0 0.00 0.00 0.00 26 1014.0
20260509074154 75 91 0.0 2.0 0.00 0.00 0.00 26 1014.0
20260509073153 75 355 1.0 1.0 0.00 0.00 0.00 26 1014.0
20260509072153 75 278 2.0 3.0 0.00 0.00 0.00 27 1014.0
20260509071153 76 46 3.0 6.0 0.00 0.00 0.00 27 1014.0
20260509070153 76 7 2.0 2.0 0.00 0.00 0.00 27 1014.0
20260509065153 76 279 3.0 3.0 0.00 0.00 0.00 27 1013.0
20260509064153 76 24 2.0 3.0 0.00 0.00 0.00 27 1013.0
20260509063152 76 18 3.0 5.0 0.00 0.00 0.00 27 1013.0
20260509062152 75 68 2.0 3.0 0.00 0.00 0.00 27 1013.0
20260509061152 76 34 5.0 8.0 0.00 0.00 0.00 27 1013.0
20260509060152 76 22 3.0 6.0 0.00 0.00 0.00 27 1013.0
20260509055153 77 63 3.0 5.0 0.00 0.00 0.00 27 1013.0
20260509054153 76 348 1.0 3.0 0.00 0.00 0.00 28 1012.0
20260509053153 76 317 3.0 5.0 0.00 0.00 0.00 28 1012.0
20260509052154 77 241 5.0 7.0 0.00 0.00 0.00 27 1013.0
20260509051152 78 245 3.0 5.0 0.00 0.00 0.00 27 1012.0
20260509050152 79 43 0.0 2.0 0.00 0.00 0.00 27 1012.0
20260509045152 80 51 2.0 3.0 0.00 0.00 0.00 27 1012.0
20260509044152 79 243 2.0 3.0 0.00 0.00 0.00 27 1013.0
20260509043152 78 30 3.0 5.0 0.00 0.00 0.00 27 1013.0
20260509042153 79 54 6.0 9.0 0.00 0.00 0.00 27 1013.0
20260509041153 79 101 2.0 3.0 0.00 0.00 0.00 27 1013.0
20260509040153 79 8 1.0 3.0 0.00 0.00 0.00 28 1013.0
20260509035153 79 36 2.0 3.0 0.00 0.00 0.00 28 1013.0
20260509034153 78 22 2.0 3.0 0.00 0.00 0.00 28 1013.0
20260509033153 78 28 2.0 5.0 0.00 0.00 0.00 28 1013.0
20260509032152 78 76 2.0 2.0 0.00 0.00 0.00 29 1013.0
20260509031152 77 345 3.0 3.0 0.00 0.00 0.00 29 1013.0
20260509030152 76 358 5.0 8.0 0.00 0.00 0.00 29 1013.0
20260509025152 77 10 3.0 9.0 0.00 0.00 0.00 30 1013.0
20260509024152 77 39 5.0 12.0 0.00 0.00 0.00 30 1013.0
20260509023152 75 350 6.0 8.0 0.00 0.00 0.00 29 1013.0
20260509022151 76 49 3.0 5.0 0.00 0.00 0.00 29 1013.0
20260509021151 76 46 5.0 8.0 0.00 0.00 0.00 29 1013.0
20260509020151 76 60 2.0 8.0 0.00 0.00 0.00 30 1013.0
20260509015153 78 17 3.0 7.0 0.00 0.00 0.00 29 1013.0
20260509014153 76 48 3.0 8.0 0.00 0.00 0.00 30 1013.0
20260509013153 75 35 3.0 5.0 0.00 0.00 0.00 30 1013.0
20260509012153 76 3 3.0 7.0 0.00 0.00 0.00 29 1013.0
20260509011153 77 31 2.0 3.0 0.00 0.00 0.00 29 1012.0
20260509010151 76 50 2.0 6.0 0.00 0.00 0.00 29 1012.0
20260509005151 76 33 2.0 3.0 0.00 0.00 0.00 29 1013.0
20260509004151 74 68 1.0 3.0 0.00 0.00 0.00 28 1013.0
20260509003151 75 32 2.0 2.0 0.00 0.00 0.00 27 1013.0
20260509002152 75 280 2.0 2.0 0.00 0.00 0.00 27 1012.0
20260509001153 76 24 2.0 5.0 0.00 0.00 0.00 27 1012.0
20260509000152 77 33 2.0 3.0 0.00 0.00 0.00 25 1012.0
20260508235151 77 74 1.0 3.0 0.00 0.00 0.00 26 1012.0
20260508234151 77 41 3.0 3.0 0.00 0.00 0.00 26 1011.0
20260508233151 78 53 2.0 5.0 0.00 0.00 0.00 27 1011.0
20260508232151 77 9 2.0 2.0 0.00 0.00 0.00 27 1011.0
20260508231151 76 101 1.0 1.0 0.00 0.00 0.00 29 1011.0
20260508230151 75 170 2.0 3.0 0.00 0.00 0.00 30 1011.0
20260508225151 73 69 2.0 3.0 0.00 0.00 0.00 32 1010.0
20260508224151 73 34 0.0 3.0 0.00 0.00 0.00 34 1010.0
20260508223150 72 225 0.0 1.0 0.00 0.00 0.00 35 1010.0
20260508222152 71 44 2.0 3.0 0.00 0.00 0.00 35 1010.0
20260508221152 68 45 2.0 2.0 0.00 0.00 0.00 34 1010.0
20260508220152 66 45 1.0 2.0 0.00 0.00 0.00 36 1010.0
20260508215152 65 49 1.0 2.0 0.00 0.00 0.00 36 1010.0
20260508214152 65 68 0.0 1.0 0.00 0.00 0.00 37 1009.0
20260508213152 65 68 0.0 0.0 0.00 0.00 0.00 37 1009.0
20260508212152 65 34 1.0 2.0 0.00 0.00 0.00 37 1009.0
20260508211152 64 105 0.0 0.0 0.00 0.00 0.00 39 1009.0
20260508210151 64 45 0.0 2.0 0.00 0.00 0.00 39 1009.0
20260508205151 63 68 0.0 0.0 0.00 0.00 0.00 40 1009.0
20260508204151 63 128 0.0 0.0 0.00 0.00 0.00 40 1008.0
20260508203151 63 54 1.0 1.0 0.00 0.00 0.00 39 1008.0
20260508202151 63 69 0.0 1.0 0.00 0.00 0.00 40 1008.0
20260508201151 63 309 1.0 2.0 0.00 0.00 0.00 40 1007.0
20260508200151 63 58 3.0 7.0 0.00 0.00 0.00 41 1007.0
20260508195151 64 6 1.0 2.0 0.00 0.00 0.00 42 1007.0
20260508194151 64 248 1.0 2.0 0.00 0.00 0.00 42 1007.0
20260508193150 64 81 3.0 3.0 0.00 0.00 0.00 42 1007.0
20260508192151 64 78 1.0 1.0 0.00 0.00 0.00 44 1007.0
20260508191156 64 17 2.0 6.0 0.00 0.00 0.00 44 1007.0
20260508190156 64 0 1.0 1.0 0.00 0.00 0.00 44 1007.0